Year,Month,Day,Hour,Minute,Value (Times are PST for temperature in C)
2014,07,26,00,00,14.30
2014,07,26,00,01,14.30
2014,07,26,00,02,14.30
2014,07,26,00,03,14.30
2014,07,26,00,04,14.30
2014,07,26,00,05,14.30
2014,07,26,00,06,14.30
2014,07,26,00,07,14.30
2014,07,26,00,08,14.30
2014,07,26,00,09,14.30
2014,07,26,00,10,14.30
2014,07,26,00,11,14.30
2014,07,26,00,12,14.30
2014,07,26,00,13,14.40
2014,07,26,00,14,14.30
2014,07,26,00,15,14.40
2014,07,26,00,16,14.40
2014,07,26,00,17,14.30
2014,07,26,00,18,14.30
2014,07,26,00,19,14.30
2014,07,26,00,20,14.30
2014,07,26,00,21,14.30
2014,07,26,00,22,14.30
2014,07,26,00,23,14.30
2014,07,26,00,24,14.30
2014,07,26,00,25,14.30
2014,07,26,00,26,14.30
2014,07,26,00,27,14.30
2014,07,26,00,28,14.30
2014,07,26,00,29,14.30
2014,07,26,00,30,14.30
2014,07,26,00,31,14.30
2014,07,26,00,32,14.30
2014,07,26,00,33,14.30
2014,07,26,00,34,14.30
2014,07,26,00,35,14.30
2014,07,26,00,36,14.30
2014,07,26,00,37,14.30
2014,07,26,00,38,14.30
2014,07,26,00,39,14.30
2014,07,26,00,40,14.30
2014,07,26,00,41,14.30
2014,07,26,00,42,14.30
2014,07,26,00,43,14.30
2014,07,26,00,44,14.40
2014,07,26,00,45,14.40
2014,07,26,00,46,14.30
2014,07,26,00,47,14.30
2014,07,26,00,48,14.30
2014,07,26,00,49,14.30
2014,07,26,00,50,14.40
2014,07,26,00,51,14.40
2014,07,26,00,52,14.40
2014,07,26,00,53,14.40
2014,07,26,00,54,14.40
2014,07,26,00,55,14.40
2014,07,26,00,56,14.40
2014,07,26,00,57,14.30
2014,07,26,00,58,14.30
2014,07,26,00,59,14.30
2014,07,26,01,00,14.30
2014,07,26,01,01,14.30
2014,07,26,01,02,14.30
2014,07,26,01,03,14.30
2014,07,26,01,04,14.30
2014,07,26,01,05,14.30
2014,07,26,01,06,14.30
2014,07,26,01,07,14.30
2014,07,26,01,08,14.30
2014,07,26,01,09,14.30
2014,07,26,01,10,14.30
2014,07,26,01,11,14.30
2014,07,26,01,12,14.30
2014,07,26,01,13,14.30
2014,07,26,01,14,14.30
2014,07,26,01,15,14.30
2014,07,26,01,16,14.20
2014,07,26,01,17,14.20
2014,07,26,01,18,14.20
2014,07,26,01,19,14.20
2014,07,26,01,20,14.20
2014,07,26,01,21,14.20
2014,07,26,01,22,14.20
2014,07,26,01,23,14.20
2014,07,26,01,24,14.10
2014,07,26,01,25,14.10
2014,07,26,01,26,14.10
2014,07,26,01,27,14.10
2014,07,26,01,28,14.10
2014,07,26,01,29,14.10
2014,07,26,01,30,14.10
2014,07,26,01,31,14.10
2014,07,26,01,32,14.10
2014,07,26,01,33,14.10
2014,07,26,01,34,14.10
2014,07,26,01,35,14.10
2014,07,26,01,36,14.10
2014,07,26,01,37,14.00
2014,07,26,01,38,14.00
2014,07,26,01,39,14.00
2014,07,26,01,40,14.00
2014,07,26,01,41,14.00
2014,07,26,01,42,14.00
2014,07,26,01,43,13.90
2014,07,26,01,44,13.90
2014,07,26,01,45,13.90
2014,07,26,01,46,13.90
2014,07,26,01,47,13.90
2014,07,26,01,48,13.90
2014,07,26,01,49,13.80
2014,07,26,01,50,13.80
2014,07,26,01,51,13.80
2014,07,26,01,52,13.80
2014,07,26,01,53,13.80
2014,07,26,01,54,13.80
2014,07,26,01,55,13.80
2014,07,26,01,56,13.70
2014,07,26,01,57,13.70
2014,07,26,01,58,13.70
2014,07,26,01,59,13.70
2014,07,26,02,00,13.70
2014,07,26,02,01,13.70
2014,07,26,02,02,13.60
2014,07,26,02,03,13.60
2014,07,26,02,04,13.60
2014,07,26,02,05,13.60
2014,07,26,02,06,13.60
2014,07,26,02,07,13.60
2014,07,26,02,08,13.60
2014,07,26,02,09,13.60
2014,07,26,02,10,13.50
2014,07,26,02,11,13.50
2014,07,26,02,12,13.50
2014,07,26,02,13,13.50
2014,07,26,02,14,13.50
2014,07,26,02,15,13.40
2014,07,26,02,16,13.40
2014,07,26,02,17,13.40
2014,07,26,02,18,13.40
2014,07,26,02,19,13.40
2014,07,26,02,20,13.40
2014,07,26,02,21,13.40
2014,07,26,02,22,13.40
2014,07,26,02,23,13.40
2014,07,26,02,24,13.30
2014,07,26,02,25,13.30
2014,07,26,02,26,13.30
2014,07,26,02,27,13.30
2014,07,26,02,28,13.30
2014,07,26,02,29,13.30
2014,07,26,02,30,13.30
2014,07,26,02,31,13.30
2014,07,26,02,32,13.30
2014,07,26,02,33,13.30
2014,07,26,02,34,13.30
2014,07,26,02,35,13.30
2014,07,26,02,36,13.30
2014,07,26,02,37,13.30
2014,07,26,02,38,13.30
2014,07,26,02,39,13.30
2014,07,26,02,40,13.30
2014,07,26,02,41,13.20
2014,07,26,02,42,13.20
2014,07,26,02,43,13.20
2014,07,26,02,44,13.20
2014,07,26,02,45,13.20
2014,07,26,02,46,13.20
2014,07,26,02,47,13.20
2014,07,26,02,48,13.20
2014,07,26,02,49,13.20
2014,07,26,02,50,13.20
2014,07,26,02,51,13.20
2014,07,26,02,52,13.20
2014,07,26,02,53,13.20
2014,07,26,03,57,20.90
2014,07,26,03,58,21.00
2014,07,26,03,59,21.00
2014,07,26,04,00,21.00
2014,07,26,04,01,20.90
2014,07,26,04,02,20.90
2014,07,26,04,03,20.90
2014,07,26,04,04,20.90
2014,07,26,04,05,20.90
2014,07,26,04,06,21.00
2014,07,26,04,07,21.00
2014,07,26,04,08,21.10
2014,07,26,04,09,21.10
2014,07,26,04,10,21.00
2014,07,26,04,11,21.00
2014,07,26,04,12,20.90
2014,07,26,04,13,20.90
2014,07,26,04,14,20.80
2014,07,26,04,15,20.80
2014,07,26,04,16,20.70
2014,07,26,04,17,20.70
2014,07,26,04,18,20.70
2014,07,26,04,19,20.60
2014,07,26,04,20,20.70
2014,07,26,04,21,20.80
2014,07,26,04,22,20.80
2014,07,26,04,23,20.80
2014,07,26,04,24,20.90
2014,07,26,04,25,20.90
2014,07,26,04,26,20.90
2014,07,26,04,27,21.00
2014,07,26,04,28,21.00
2014,07,26,04,29,21.10
2014,07,26,04,30,21.10
2014,07,26,04,31,21.20
2014,07,26,04,32,21.20
2014,07,26,04,33,21.20
2014,07,26,04,34,21.30
2014,07,26,04,35,21.30
2014,07,26,04,36,21.30
2014,07,26,04,37,21.40
2014,07,26,04,38,21.50
2014,07,26,04,39,21.50
2014,07,26,04,40,21.50
2014,07,26,04,41,21.50
2014,07,26,04,42,21.60
2014,07,26,04,43,21.60
2014,07,26,04,44,21.70
2014,07,26,04,45,21.70
2014,07,26,04,46,21.70
2014,07,26,04,47,21.80
2014,07,26,04,48,21.80
2014,07,26,04,49,21.80
2014,07,26,04,50,21.80
2014,07,26,04,51,21.80
2014,07,26,04,52,21.90
2014,07,26,04,53,21.90
2014,07,26,04,54,21.90
2014,07,26,04,55,21.80
2014,07,26,04,56,21.70
2014,07,26,04,57,21.70
2014,07,26,04,58,21.60
2014,07,26,04,59,21.50
2014,07,26,05,00,21.40
2014,07,26,05,01,21.40
2014,07,26,05,02,21.30
2014,07,26,05,03,21.30
2014,07,26,05,04,21.30
2014,07,26,05,05,21.20
2014,07,26,05,06,21.20
2014,07,26,05,07,21.30
2014,07,26,05,08,21.40
2014,07,26,05,09,21.50
2014,07,26,05,10,21.60
2014,07,26,05,11,21.60
2014,07,26,05,12,21.70
2014,07,26,05,13,21.80
2014,07,26,05,14,21.90
2014,07,26,05,15,22.00
2014,07,26,05,16,22.10
2014,07,26,05,17,22.10
2014,07,26,05,18,22.20
2014,07,26,05,19,22.30
2014,07,26,05,20,22.40
2014,07,26,05,21,22.40
2014,07,26,05,22,22.40
2014,07,26,05,23,22.30
2014,07,26,05,24,22.30
2014,07,26,05,25,22.40
2014,07,26,05,26,22.40
2014,07,26,05,27,22.40
2014,07,26,05,28,22.40
2014,07,26,05,29,22.40
2014,07,26,05,30,22.40
2014,07,26,05,31,22.40
2014,07,26,05,32,22.40
2014,07,26,05,33,22.30
2014,07,26,05,34,22.30
2014,07,26,05,35,22.30
2014,07,26,05,36,22.30
2014,07,26,05,37,22.30
2014,07,26,05,38,22.30
2014,07,26,05,39,22.40
2014,07,26,05,40,22.40
2014,07,26,05,41,22.30
2014,07,26,05,42,22.40
2014,07,26,05,43,22.40
2014,07,26,05,44,22.50
2014,07,26,05,45,22.60
2014,07,26,05,46,22.70
2014,07,26,05,47,22.70
2014,07,26,05,48,22.70
2014,07,26,05,49,22.70
2014,07,26,05,50,22.70
2014,07,26,05,51,22.70
2014,07,26,05,52,22.60
2014,07,26,05,53,22.60
2014,07,26,05,54,22.60
2014,07,26,05,55,22.60
2014,07,26,05,56,22.60
2014,07,26,05,57,22.60
2014,07,26,05,58,22.70
2014,07,26,05,59,22.70
2014,07,26,06,00,22.70
2014,07,26,06,01,22.80
2014,07,26,06,02,22.90
2014,07,26,06,03,22.90
2014,07,26,06,04,23.00
2014,07,26,06,05,23.00
2014,07,26,06,06,23.00
2014,07,26,06,07,23.10
2014,07,26,06,08,23.10
2014,07,26,06,09,23.20
2014,07,26,06,10,23.20
2014,07,26,06,11,23.20
2014,07,26,06,12,23.20
2014,07,26,06,13,23.20
2014,07,26,06,14,23.20
2014,07,26,06,15,23.20
2014,07,26,06,16,23.10
2014,07,26,06,17,23.10
2014,07,26,06,18,23.10
2014,07,26,06,19,23.10
2014,07,26,06,20,23.10
2014,07,26,06,21,23.00
2014,07,26,06,22,23.00
2014,07,26,06,23,23.10
2014,07,26,06,24,23.10
2014,07,26,06,25,23.20
2014,07,26,06,26,23.20
2014,07,26,06,27,23.20
2014,07,26,06,28,23.20
2014,07,26,06,29,23.10
2014,07,26,06,30,23.00
2014,07,26,06,31,23.00
2014,07,26,06,32,22.90
2014,07,26,06,33,22.80
2014,07,26,06,34,22.80
2014,07,26,06,35,22.80
2014,07,26,06,36,22.80
2014,07,26,06,37,22.70
2014,07,26,06,38,22.70
2014,07,26,06,39,22.70
2014,07,26,06,40,22.80
2014,07,26,06,41,22.90
2014,07,26,06,42,22.90
2014,07,26,06,43,22.90
2014,07,26,06,44,22.90
2014,07,26,06,45,23.00
2014,07,26,06,46,23.00
2014,07,26,06,47,23.10
2014,07,26,06,48,23.20
2014,07,26,06,49,23.20
2014,07,26,06,50,23.30
2014,07,26,06,51,23.20
2014,07,26,06,52,23.20
2014,07,26,06,53,23.20
2014,07,26,06,54,23.20
2014,07,26,06,55,23.10
2014,07,26,06,56,23.20
2014,07,26,06,57,23.20
2014,07,26,06,58,23.20
2014,07,26,06,59,23.30
2014,07,26,07,00,23.40
2014,07,26,07,01,23.40
2014,07,26,07,02,23.40
2014,07,26,07,03,23.40
2014,07,26,07,04,23.30
2014,07,26,07,05,23.20
2014,07,26,07,06,23.20
2014,07,26,07,07,23.20
2014,07,26,07,08,23.20
2014,07,26,07,09,23.20
2014,07,26,07,10,23.20
2014,07,26,07,11,23.20
2014,07,26,07,12,23.30
2014,07,26,07,13,23.30
2014,07,26,07,14,23.20
2014,07,26,07,15,23.20
2014,07,26,07,16,23.20
2014,07,26,07,17,23.30
2014,07,26,07,18,23.30
2014,07,26,07,19,23.30
2014,07,26,07,20,23.30
2014,07,26,07,21,23.30
2014,07,26,07,22,23.20
2014,07,26,07,23,23.10
2014,07,26,07,24,23.10
2014,07,26,07,25,23.10
2014,07,26,07,26,23.10
2014,07,26,07,27,23.10
2014,07,26,07,28,23.10
2014,07,26,07,29,23.20
2014,07,26,07,30,23.20
2014,07,26,07,31,23.20
2014,07,26,07,32,23.30
2014,07,26,07,33,23.30
2014,07,26,07,34,23.30
2014,07,26,07,35,23.30
2014,07,26,07,36,23.40
2014,07,26,07,37,23.40
2014,07,26,07,38,23.40
2014,07,26,07,39,23.40
2014,07,26,07,40,23.40
2014,07,26,07,41,23.40
2014,07,26,07,42,23.40
2014,07,26,07,43,23.40
2014,07,26,07,44,23.50
2014,07,26,07,45,23.50
2014,07,26,07,46,23.60
2014,07,26,07,47,23.70
2014,07,26,07,48,23.80
2014,07,26,07,49,23.90
2014,07,26,07,50,24.00
2014,07,26,07,51,24.00
2014,07,26,07,52,24.10
2014,07,26,07,53,24.10
2014,07,26,07,54,24.10
2014,07,26,07,55,24.10
2014,07,26,07,56,24.10
2014,07,26,07,57,24.00
2014,07,26,07,58,23.90
2014,07,26,07,59,23.80
2014,07,26,08,00,23.70
2014,07,26,08,01,23.60
2014,07,26,08,02,23.60
2014,07,26,08,03,23.50
2014,07,26,08,04,23.50
2014,07,26,08,05,23.40
2014,07,26,08,06,23.30
2014,07,26,08,07,23.30
2014,07,26,08,08,23.20
2014,07,26,08,09,23.20
2014,07,26,08,10,23.20
2014,07,26,08,11,23.20
2014,07,26,08,12,23.20
2014,07,26,08,13,23.30
2014,07,26,08,14,23.30
2014,07,26,08,15,23.40
2014,07,26,08,16,23.50
2014,07,26,08,17,23.60
2014,07,26,08,18,23.70
2014,07,26,08,19,23.70
2014,07,26,08,20,23.70
2014,07,26,08,21,23.70
2014,07,26,08,22,23.70
2014,07,26,08,23,23.70
2014,07,26,08,24,23.70
2014,07,26,08,25,23.60
2014,07,26,08,26,23.60
2014,07,26,08,27,23.60
2014,07,26,08,28,23.60
2014,07,26,08,29,23.60
2014,07,26,08,30,23.60
2014,07,26,08,31,23.70
2014,07,26,08,32,23.70
2014,07,26,08,33,23.80
2014,07,26,08,34,23.80
2014,07,26,08,35,23.90
2014,07,26,08,36,23.90
2014,07,26,08,37,23.90
2014,07,26,08,38,23.90
2014,07,26,08,39,23.90
2014,07,26,08,40,23.80
2014,07,26,08,41,23.80
2014,07,26,08,42,23.80
2014,07,26,08,43,23.80
2014,07,26,08,44,23.80
2014,07,26,08,45,23.90
2014,07,26,08,46,23.90
2014,07,26,08,47,23.90
2014,07,26,08,48,24.00
2014,07,26,08,49,24.10
2014,07,26,08,50,24.10
2014,07,26,08,51,24.20
2014,07,26,08,52,24.20
2014,07,26,08,53,24.30
2014,07,26,08,54,24.30
2014,07,26,08,55,24.40
2014,07,26,08,56,24.40
2014,07,26,08,57,24.50
2014,07,26,08,58,24.40
2014,07,26,08,59,24.40
2014,07,26,09,00,24.40
2014,07,26,09,01,24.50
2014,07,26,09,02,24.50
2014,07,26,09,03,24.50
2014,07,26,09,04,24.50
2014,07,26,09,05,24.50
2014,07,26,09,06,24.50
2014,07,26,09,07,24.50
2014,07,26,09,08,24.40
2014,07,26,09,09,24.40
2014,07,26,09,10,24.40
2014,07,26,09,11,24.40
2014,07,26,09,12,24.40
2014,07,26,09,13,24.40
2014,07,26,09,14,24.40
2014,07,26,09,15,24.40
2014,07,26,09,16,24.40
2014,07,26,09,17,24.40
2014,07,26,09,18,24.40
2014,07,26,09,19,24.40
2014,07,26,09,20,24.50
2014,07,26,09,21,24.40
2014,07,26,09,22,24.40
2014,07,26,09,23,24.30
2014,07,26,09,24,24.30
2014,07,26,09,25,24.20
2014,07,26,09,26,24.20
2014,07,26,09,27,24.20
2014,07,26,09,28,24.20
2014,07,26,09,29,24.20
2014,07,26,09,30,24.10
2014,07,26,09,31,24.10
2014,07,26,09,32,24.10
2014,07,26,09,33,24.20
2014,07,26,09,34,24.20
2014,07,26,09,35,24.10
2014,07,26,09,36,24.10
2014,07,26,09,37,24.10
2014,07,26,09,38,24.10
2014,07,26,09,39,24.20
2014,07,26,09,40,24.20
2014,07,26,09,41,24.30
2014,07,26,09,42,24.30
2014,07,26,09,43,24.40
2014,07,26,09,44,24.40
2014,07,26,09,45,24.40
2014,07,26,09,46,24.40
2014,07,26,09,47,24.30
2014,07,26,09,48,24.30
2014,07,26,09,49,24.30
2014,07,26,09,50,24.30
2014,07,26,09,51,24.20
2014,07,26,09,52,24.20
2014,07,26,09,53,24.20
2014,07,26,09,54,24.20
2014,07,26,09,55,24.20
2014,07,26,09,56,24.20
2014,07,26,09,57,24.20
2014,07,26,09,58,24.30
2014,07,26,09,59,24.30
2014,07,26,10,00,24.40
2014,07,26,10,01,24.40
2014,07,26,10,02,24.30
2014,07,26,10,03,24.30
2014,07,26,10,04,24.30
2014,07,26,10,05,24.30
2014,07,26,10,06,24.30
2014,07,26,10,07,24.40
2014,07,26,10,08,24.40
2014,07,26,10,09,24.40
2014,07,26,10,10,24.40
2014,07,26,10,11,24.30
2014,07,26,10,12,24.30
2014,07,26,10,13,24.30
2014,07,26,10,14,24.20
2014,07,26,10,15,24.30
2014,07,26,10,16,24.30
2014,07,26,10,17,24.30
2014,07,26,10,18,24.30
2014,07,26,10,19,24.30
2014,07,26,10,20,24.30
2014,07,26,10,21,24.20
2014,07,26,10,22,24.20
2014,07,26,10,23,24.20
2014,07,26,10,24,24.20
2014,07,26,10,25,24.20
2014,07,26,10,26,24.20
2014,07,26,10,27,24.20
2014,07,26,10,28,24.20
2014,07,26,10,29,24.10
2014,07,26,10,30,24.10
2014,07,26,10,31,24.00
2014,07,26,10,32,24.00
2014,07,26,10,33,23.90
2014,07,26,10,34,23.80
2014,07,26,10,35,23.80
2014,07,26,10,36,23.70
2014,07,26,10,37,23.60
2014,07,26,10,38,23.60
2014,07,26,10,39,23.50
2014,07,26,10,40,23.40
2014,07,26,10,41,23.40
2014,07,26,10,42,23.30
2014,07,26,10,43,23.30
2014,07,26,10,44,23.30
2014,07,26,10,45,23.20
2014,07,26,10,46,23.20
2014,07,26,10,47,23.20
2014,07,26,10,48,23.20
2014,07,26,10,49,23.10
2014,07,26,10,50,23.10
2014,07,26,10,51,23.10
2014,07,26,10,52,23.10
2014,07,26,10,53,23.00
2014,07,26,10,54,23.00
2014,07,26,10,55,23.00
2014,07,26,10,56,22.90
2014,07,26,10,57,22.90
2014,07,26,10,58,22.80
2014,07,26,10,59,22.80
2014,07,26,11,00,22.80
2014,07,26,11,01,22.80
2014,07,26,11,02,22.70
2014,07,26,11,03,22.70
2014,07,26,11,04,22.70
2014,07,26,11,05,22.60
2014,07,26,11,06,20.30
2014,07,26,11,07,20.20
2014,07,26,11,08,20.20
2014,07,26,11,09,20.20
2014,07,26,11,10,20.30
2014,07,26,11,11,20.30
2014,07,26,11,12,20.40
2014,07,26,11,13,20.40
2014,07,26,11,14,20.40
2014,07,26,11,15,20.40
2014,07,26,11,16,20.40
2014,07,26,11,17,20.40
2014,07,26,11,18,20.40
2014,07,26,11,19,20.40
2014,07,26,11,20,20.40
2014,07,26,11,21,20.50
2014,07,26,11,22,20.50
2014,07,26,11,23,20.60
2014,07,26,11,24,20.60
2014,07,26,11,25,20.70
2014,07,26,11,26,20.80
2014,07,26,11,27,20.90
2014,07,26,11,28,21.00
2014,07,26,11,29,21.10
2014,07,26,11,30,21.20
2014,07,26,11,31,21.20
2014,07,26,11,32,21.20
2014,07,26,11,33,21.20
2014,07,26,11,34,21.20
2014,07,26,11,35,21.10
2014,07,26,11,36,21.10
2014,07,26,11,37,21.00
2014,07,26,11,38,21.00
2014,07,26,11,39,21.00
2014,07,26,11,40,21.10
2014,07,26,11,41,21.10
2014,07,26,11,42,21.20
2014,07,26,11,43,21.30
2014,07,26,11,44,21.30
2014,07,26,11,45,21.20
2014,07,26,11,46,21.20
2014,07,26,11,47,21.10
2014,07,26,11,48,21.10
2014,07,26,11,49,21.10
2014,07,26,11,50,21.10
2014,07,26,11,51,21.00
2014,07,26,11,52,21.00
2014,07,26,11,53,20.90
2014,07,26,11,54,20.90
2014,07,26,12,06,20.30
2014,07,26,12,07,20.20
2014,07,26,12,08,20.20
2014,07,26,12,09,20.20
2014,07,26,12,10,20.10
2014,07,26,12,11,20.10
2014,07,26,12,12,20.00
2014,07,26,12,13,20.00
2014,07,26,12,14,19.90
2014,07,26,12,15,19.80
2014,07,26,12,16,19.80
2014,07,26,12,17,19.70
2014,07,26,12,18,19.70
2014,07,26,12,19,19.70
2014,07,26,12,20,19.60
2014,07,26,12,21,19.60
2014,07,26,12,22,19.50
2014,07,26,12,23,19.50
2014,07,26,12,24,19.40
2014,07,26,12,25,19.40
2014,07,26,12,26,19.40
2014,07,26,12,27,19.30
2014,07,26,12,28,19.30
2014,07,26,12,29,19.20
2014,07,26,12,30,19.20
2014,07,26,12,31,19.20
2014,07,26,12,32,19.10
2014,07,26,12,33,19.10
2014,07,26,12,34,19.00
2014,07,26,12,35,19.00
2014,07,26,12,36,18.90
2014,07,26,12,37,18.90
2014,07,26,12,38,18.90
2014,07,26,12,39,18.80
2014,07,26,12,40,18.80
2014,07,26,12,41,18.70
2014,07,26,12,42,18.70
2014,07,26,12,43,18.60
2014,07,26,12,44,18.60
2014,07,26,12,45,18.50
2014,07,26,12,46,18.50
2014,07,26,12,47,18.40
2014,07,26,12,48,18.40
2014,07,26,12,49,18.40
2014,07,26,12,50,18.30
2014,07,26,12,51,18.30
2014,07,26,12,52,18.20
2014,07,26,12,53,18.20
2014,07,26,12,54,18.20
2014,07,26,12,55,18.10
2014,07,26,12,56,18.10
2014,07,26,12,57,18.10
2014,07,26,12,58,18.00
2014,07,26,12,59,18.00
2014,07,26,13,00,18.00
2014,07,26,13,01,17.90
2014,07,26,13,02,17.90
2014,07,26,13,03,17.90
2014,07,26,13,04,17.90
2014,07,26,13,05,17.80
2014,07,26,13,06,17.80
2014,07,26,13,07,17.80
2014,07,26,13,08,17.80
2014,07,26,13,09,17.70
2014,07,26,13,10,17.70
2014,07,26,13,11,17.70
2014,07,26,13,12,17.70
2014,07,26,13,13,17.60
2014,07,26,13,14,17.60
2014,07,26,13,15,17.60
2014,07,26,13,16,17.50
2014,07,26,13,17,17.50
2014,07,26,13,18,17.50
2014,07,26,13,19,17.40
2014,07,26,13,20,17.40
2014,07,26,13,21,17.30
2014,07,26,13,22,17.30
2014,07,26,13,23,17.30
2014,07,26,13,24,17.20
2014,07,26,13,25,17.20
2014,07,26,13,26,17.20
2014,07,26,13,27,17.10
2014,07,26,13,28,17.10
2014,07,26,13,29,17.10
2014,07,26,13,30,17.00
2014,07,26,13,31,17.00
2014,07,26,13,32,17.00
2014,07,26,13,33,16.90
2014,07,26,13,34,16.90
2014,07,26,13,35,16.90
2014,07,26,13,36,16.80
2014,07,26,13,37,16.80
2014,07,26,13,38,16.80
2014,07,26,13,39,16.70
2014,07,26,13,40,16.70
2014,07,26,13,41,16.70
2014,07,26,13,42,16.60
2014,07,26,13,43,16.60
2014,07,26,13,44,16.60
2014,07,26,13,45,16.50
2014,07,26,13,46,16.50
2014,07,26,13,47,16.40
2014,07,26,13,48,16.40
2014,07,26,13,49,16.40
2014,07,26,13,50,16.30
2014,07,26,13,51,16.30
2014,07,26,13,52,16.30
2014,07,26,13,53,16.30
2014,07,26,13,54,16.20
2014,07,26,13,55,16.20
2014,07,26,13,56,16.20
2014,07,26,13,57,16.10
2014,07,26,13,58,16.10
2014,07,26,13,59,16.10
2014,07,26,14,00,16.10
2014,07,26,14,01,16.00
2014,07,26,14,02,16.00
2014,07,26,14,03,16.00
2014,07,26,14,04,15.90
2014,07,26,14,05,15.90
2014,07,26,14,06,15.90
2014,07,26,14,07,15.80
2014,07,26,14,08,15.80
2014,07,26,14,09,15.80
2014,07,26,14,10,15.80
2014,07,26,14,11,15.70
2014,07,26,14,12,15.70
2014,07,26,14,13,15.70
2014,07,26,14,14,15.70
2014,07,26,14,15,15.70
2014,07,26,14,16,15.60
2014,07,26,14,17,15.60
2014,07,26,14,18,15.60
2014,07,26,14,19,15.60
2014,07,26,14,20,15.60
2014,07,26,14,21,15.60
2014,07,26,14,22,15.60
2014,07,26,14,23,15.60
2014,07,26,14,24,15.60
2014,07,26,14,25,15.60
2014,07,26,14,26,15.50
2014,07,26,14,27,15.50
2014,07,26,14,28,15.50
2014,07,26,14,29,15.50
2014,07,26,14,30,15.40
2014,07,26,14,31,15.40
2014,07,26,14,32,15.40
2014,07,26,14,33,15.40
2014,07,26,14,34,15.40
2014,07,26,14,35,15.40
2014,07,26,14,36,15.40
2014,07,26,14,37,15.40
2014,07,26,14,38,15.40
2014,07,26,14,39,15.40
2014,07,26,14,40,15.40
2014,07,26,14,41,15.40
2014,07,26,14,42,15.40
2014,07,26,14,43,15.40
2014,07,26,14,44,15.30
2014,07,26,14,45,15.30
2014,07,26,14,46,15.30
2014,07,26,14,47,15.30
2014,07,26,14,48,15.30
2014,07,26,14,49,15.30
2014,07,26,14,50,15.30
2014,07,26,14,51,15.30
2014,07,26,14,52,15.30
2014,07,26,14,53,15.30
2014,07,26,14,54,15.20
2014,07,26,14,55,15.20
2014,07,26,14,56,15.20
2014,07,26,14,57,15.30
2014,07,26,14,58,15.30
2014,07,26,14,59,15.20
2014,07,26,15,00,15.20
2014,07,26,15,01,15.20
2014,07,26,15,02,15.20
2014,07,26,15,03,15.20
2014,07,26,15,04,15.20
2014,07,26,15,05,15.20
2014,07,26,15,06,15.20
2014,07,26,15,07,15.20
2014,07,26,15,08,15.20
2014,07,26,15,09,15.20
2014,07,26,15,10,15.20
2014,07,26,15,11,15.20
2014,07,26,15,12,15.20
2014,07,26,15,13,15.20
2014,07,26,15,14,15.20
2014,07,26,15,15,15.10
2014,07,26,15,16,15.10
2014,07,26,15,17,15.10
2014,07,26,15,18,15.10
2014,07,26,15,19,15.10
2014,07,26,15,20,15.10
2014,07,26,15,21,15.10
2014,07,26,15,22,15.10
2014,07,26,15,23,15.10
2014,07,26,15,24,15.10
2014,07,26,15,25,15.10
2014,07,26,15,26,15.10
2014,07,26,15,27,15.10
2014,07,26,15,28,15.10
2014,07,26,15,29,15.10
2014,07,26,15,30,15.10
2014,07,26,15,31,15.10
2014,07,26,15,32,15.10
2014,07,26,15,33,15.10
2014,07,26,15,34,15.10
2014,07,26,15,35,15.10
2014,07,26,15,36,15.10
2014,07,26,15,37,15.10
2014,07,26,15,38,15.10
2014,07,26,15,39,15.10
2014,07,26,15,40,15.20
2014,07,26,15,41,15.20
2014,07,26,15,42,15.20
2014,07,26,15,43,15.20
2014,07,26,15,44,15.20
2014,07,26,15,45,15.20
2014,07,26,15,46,15.20
2014,07,26,15,47,15.20
2014,07,26,15,48,15.20
2014,07,26,15,49,15.10
2014,07,26,15,50,15.10
2014,07,26,15,51,15.10
2014,07,26,15,52,15.10
2014,07,26,15,53,15.10
2014,07,26,15,54,15.10
2014,07,26,15,55,15.10
2014,07,26,15,56,15.10
2014,07,26,15,57,15.10
2014,07,26,15,58,15.10
2014,07,26,15,59,15.00
2014,07,26,16,00,15.00
2014,07,26,16,01,15.00
2014,07,26,16,02,15.00
2014,07,26,16,03,15.00
2014,07,26,16,04,15.00
2014,07,26,16,05,15.00
2014,07,26,16,06,15.00
2014,07,26,16,07,15.00
2014,07,26,16,08,15.00
2014,07,26,16,09,15.00
2014,07,26,16,10,15.00
2014,07,26,16,11,15.00
2014,07,26,16,12,15.00
2014,07,26,16,13,15.00
2014,07,26,16,14,15.00
2014,07,26,16,15,15.00
2014,07,26,16,16,15.00
2014,07,26,16,17,15.00
2014,07,26,16,18,15.10
2014,07,26,16,19,15.10
2014,07,26,16,20,15.10
2014,07,26,16,21,15.10
2014,07,26,16,22,15.10
2014,07,26,16,23,15.10
2014,07,26,16,24,15.10
2014,07,26,16,25,15.10
2014,07,26,16,26,15.10
2014,07,26,16,27,15.10
2014,07,26,16,28,15.10
2014,07,26,16,29,15.20
2014,07,26,16,30,15.20
2014,07,26,16,31,15.20
2014,07,26,16,32,15.20
2014,07,26,16,33,15.30
2014,07,26,16,34,15.30
2014,07,26,16,35,15.30
2014,07,26,16,36,15.40
2014,07,26,16,37,15.40
2014,07,26,16,38,15.40
2014,07,26,16,39,15.50
2014,07,26,16,40,15.60
2014,07,26,16,41,15.60
2014,07,26,16,42,15.60
2014,07,26,16,43,15.60
2014,07,26,16,44,15.70
2014,07,26,16,45,15.70
2014,07,26,16,46,15.70
2014,07,26,16,47,15.80
2014,07,26,16,48,15.80
2014,07,26,16,49,15.80
2014,07,26,16,50,15.80
2014,07,26,16,51,15.80
2014,07,26,16,52,15.90
2014,07,26,16,53,15.90
2014,07,26,16,54,15.90
2014,07,26,16,55,16.00
2014,07,26,16,56,16.00
2014,07,26,16,57,16.00
2014,07,26,16,58,16.00
2014,07,26,16,59,16.00
2014,07,26,17,00,16.00
2014,07,26,17,01,16.00
2014,07,26,17,02,16.00
2014,07,26,17,03,16.00
2014,07,26,17,04,16.10
2014,07,26,17,05,16.10
2014,07,26,17,06,16.10
2014,07,26,17,07,16.10
2014,07,26,17,08,16.10
2014,07,26,17,09,16.10
2014,07,26,17,10,16.10
2014,07,26,17,11,16.10
2014,07,26,17,12,16.10
2014,07,26,17,13,16.10
2014,07,26,17,14,16.10
2014,07,26,17,15,16.10
2014,07,26,17,16,16.20
2014,07,26,17,17,16.20
2014,07,26,17,18,16.20
2014,07,26,17,19,16.20
2014,07,26,17,20,16.20
2014,07,26,17,21,16.20
2014,07,26,17,22,16.20
2014,07,26,17,23,16.20
2014,07,26,17,24,16.20
2014,07,26,17,25,16.20
2014,07,26,17,26,16.20
2014,07,26,17,27,16.20
2014,07,26,17,28,16.20
2014,07,26,17,29,16.20
2014,07,26,17,30,16.20
2014,07,26,17,31,16.20
2014,07,26,17,32,16.10
2014,07,26,17,33,16.10
2014,07,26,17,34,16.10
2014,07,26,17,35,16.10
2014,07,26,17,36,16.10
2014,07,26,17,37,16.10
2014,07,26,17,38,16.10
2014,07,26,17,39,16.10
2014,07,26,17,40,16.10
2014,07,26,17,41,16.10
2014,07,26,17,42,16.00
2014,07,26,17,43,16.00
2014,07,26,17,44,16.00
2014,07,26,17,45,16.00
2014,07,26,17,46,16.00
2014,07,26,17,47,15.90
2014,07,26,17,48,15.90
2014,07,26,17,49,15.90
2014,07,26,17,50,15.90
2014,07,26,17,51,15.90
2014,07,26,17,52,15.90
2014,07,26,17,53,15.80
2014,07,26,17,54,15.80
2014,07,26,17,55,15.80
2014,07,26,17,56,15.80
2014,07,26,17,57,15.80
2014,07,26,17,58,15.80
2014,07,26,17,59,15.80
2014,07,26,18,00,15.80
2014,07,26,18,01,15.70
2014,07,26,18,02,15.70
2014,07,26,18,03,15.80
2014,07,26,18,04,15.80
2014,07,26,18,05,15.80
2014,07,26,18,06,15.80
2014,07,26,18,07,15.80
2014,07,26,18,08,15.80
2014,07,26,18,09,15.80
2014,07,26,18,10,15.80
2014,07,26,18,11,15.80
2014,07,26,18,12,15.80
2014,07,26,18,13,15.80
2014,07,26,18,14,15.80
2014,07,26,18,15,15.80
2014,07,26,18,16,15.80
2014,07,26,18,17,15.80
2014,07,26,18,18,15.80
2014,07,26,18,19,15.80
2014,07,26,18,20,15.70
2014,07,26,18,21,15.70
2014,07,26,18,22,15.70
2014,07,26,18,23,15.70
2014,07,26,18,24,15.70
2014,07,26,18,25,15.70
2014,07,26,18,26,15.70
2014,07,26,18,27,15.70
2014,07,26,18,28,15.70
2014,07,26,18,29,15.70
2014,07,26,18,30,15.70
2014,07,26,18,31,15.70
2014,07,26,18,32,15.70
2014,07,26,18,33,15.70